Location: Chuathbaluk
(61.5726°N, 159.2454°W)
Time: 15:17:00
(UTC+00:00)

ITAMSAT 1 - Pass Details

Date: 18 January 2021
Orbit: 784 x 796 km, 98.9° (Epoch: 01 March)

Event Time Altitude Azimuth Distance (km) Brightness Sun altitude
Rises 05:58:07 0° 223° (SW) 3,279 11.4 -26.3°
Reaches altitude 10° 06:01:36 10° 247° (WSW) 2,354 10.9 -26.7°
Maximum altitude 06:04:21 14° 279° (W) 2,067 10.7 -27.0°
Drops below altitude 10° 06:07:07 10° 312° (NW) 2,359 10.8 -27.4°
Sets 06:10:38 0° 337° (NNW) 3,292 11.3 -27.8°
